Location: Oberkirch
(48.5323°N, 8.0787°E)
Time: 16:49:10
(UTC+00:00)

Cosmos 407 Rocket - Pass Details

Date: 08 November 2025
Orbit: 740 x 780 km, 74.0° (Epoch: 09 December)

Event Time Altitude Azimuth Distance (km) Brightness Sun altitude
Exits shadow 04:54:42 - 332° (NNW) 2,485 5.8 -15.1°
Reaches altitude 10° 04:55:16 10° 331° (NNW) 2,263 5.6 -15.0°
Maximum altitude 05:00:18 61° 252° (WSW) 844 3.4 -14.2°
Drops below altitude 10° 05:05:18 10° 173° (S) 2,246 6.1 -13.4°
Sets 05:07:39 0° 170° (S) 3,167 7.0 -13.0°
